Regional Weather Roundup
Issued by NWS

Home | Current Version | Previous Version | Text Only | Print | Product List | Glossary On
Versions: 1 2 3 4 5 6 7 8 9 10 11 12 13 14 15 16 17 18 19 20 21 22 23 24 25 26 27 28 29 30 31 32 33 34 35 36 37 38 39 40 41 42 43 44 45 46 47 48 49 50
000
ASUS43 KLSX 211607
RWRMO

WEATHER SUMMARY FOR MISSOURI
NATIONAL WEATHER SERVICE SPRINGFIELD MO
1100 AM CDT TUE OCT 21 2014

NOTE: "FAIR" INDICATES FEW OR NO CLOUDS BELOW 12,000 FEET WITH NO
       SIGNIFICANT WEATHER AND/OR OBSTRUCTIONS TO VISIBILITY.
       CURRENT SKY AND/OR WEATHER CONDITIONS ARE NOT AVAILABLE FOR
       CHILLICOTHE AND FARMINGTON.

MOZ001>031-035>038-043-044-053-054-211700-
...NORTHERN AND WESTERN MISSOURI...

CITY           SKY/WX    TMP DP  RH WIND       PRES   REMARKS
KANSAS CTY INT SUNNY     64  48  56 CALM      30.15R
KANSAS C DTWN  SUNNY     63  47  55 CALM      30.14S
LEE`S SUMMIT   SUNNY     65  48  54 NE3       30.15S
ST JOSEPH      SUNNY     61  47  59 MISG      30.14F
CHILLICOTHE      N/A     61  49  64 S3        30.15S
KIRKSVILLE     SUNNY     58  48  69 E7        30.16F

$$
MOZ066>068-077>081-088>096-101>105-211700-
...SOUTHWEST MISSOURI...

CITY           SKY/WX    TMP DP  RH WIND       PRES   REMARKS
SPRINGFIELD    SUNNY     67  46  47 S6        30.14S
JOPLIN         SUNNY     65  59  81 CALM      30.15R

$$
MOZ032>034-039>042-045>050-055>058-069>072-211700-
...CENTRAL MISSOURI...

CITY           SKY/WX    TMP DP  RH WIND       PRES   REMARKS
COLUMBIA       SUNNY     66  47  50 CALM      30.13F
JEFFERSON CITY SUNNY     60  47  61 CALM      30.14F
ROLLA          SUNNY     62  44  51 W6        30.13S
SEDALIA        SUNNY     66  44  45 NW5       30.15F
WHITEMAN AFB   SUNNY     63  47  55 VRB1      30.14S
OSAGE BEACH    SUNNY     63  48  59 SW3       30.15S

$$
MOZ051-052-059>065-211700-
...EAST CENTRAL MISSOURI...

CITY           SKY/WX    TMP DP  RH WIND       PRES   REMARKS
ST LOUIS INTL  SUNNY     60  45  57 E5        30.14S
SPIRIT OF STL  SUNNY     59  48  67 CALM      30.14R
ST CHARLES     SUNNY     61  48  62 NE8       30.14R HAZE

$$
MOZ072>076-082>087-097>100-106>115-211700-
...SOUTH CENTRAL AND SOUTHEAST MISSOURI...

CITY           SKY/WX    TMP DP  RH WIND       PRES   REMARKS
CAPE GIRARDEAU SUNNY     66  49  54 NW7       30.10F
FARMINGTON     SUNNY     63  45  51 NW7       30.14S
WEST PLAINS    SUNNY     66  47  50 SW6       30.15S

$$


USA.gov is the U.S. government's official web portal to all federal, state and local government web resources and services.